Flag for U.S.A. Weather past 2 weeks in Midway, Midway Atoll, U.S.A.

Now
84 °F

Sunny.


Feels Like: 91 °F
Forecast: 80 / 87 °F
Wind: 9 mph from Southwest

Location: Midway Island Naval Air Facility

Current Time: Jul 30, 2014 at 9:34:59 AM

Latest Report: Jul 30, 2014 at 8:56 AM


Visibility: 10 mi

Pressure: 30.93 "Hg

Humidity: 74%

Dew point: 75 °F

Location of MidwayLocation

Historic Weather in Midway — Graph

°F

Midway temperature yesterday

Maximum temperature yesterday: 90 °F (at 11:56 AM)
Minimum temperature yesterday: 81 °F (at 12:56 AM)
Average temperature yesterday: 83 °F

Past Weeks' High & Low Weather Summary

 TemperatureHumidityPressure
High90 °F (Jul 29, 11:56 AM)97% (Jul 16, 8:56 PM)31.00 "Hg (Jul 16, 8:56 PM)
Low73 °F (Jul 26, 3:47 AM)55% (Jul 21, 1:56 PM)28.05 "Hg (Jul 19, 5:56 AM)
Average82 °F76%30.10 "Hg
* Reported Jul 15 7:56 AM — Jul 30 7:56 AM, Midway, Weather by CustomWeather, © 2014

Note: Actual official high and low records may vary slightly from our data, if they occured in-between our weather recording intervals... More about our weather records

Advertising

Midway weather history for previous 24 hours

 ConditionsComfort  
Time TempWeatherWind HumidityBarometerVisibility
7:56 AM
Jul 30
83 °FPassing clouds.8 mph77%30.93 "Hg10 mi
6:56 AM81 °FSunny.10 mph82%30.92 "Hg10 mi
5:56 AM80 °FPassing clouds.10 mph84%30.91 "Hg10 mi
4:56 AM80 °FClear.10 mph84%30.90 "Hg10 mi
3:56 AM80 °FClear.10 mph84%30.90 "Hg10 mi
2:56 AM80 °FPassing clouds.10 mph88%30.91 "Hg10 mi
1:56 AM80 °FClear.12 mph88%30.92 "Hg10 mi
12:56 AM79 °FLight rain. Passing clouds.6 mph82%30.94 "Hg10 mi
11:56 PM
Jul 29
81 °FLight rain. Clear.8 mph85%30.94 "Hg9 mi
10:56 PM81 °FClear.7 mph82%30.95 "Hg10 mi
9:56 PM81 °FClear.10 mph79%30.94 "Hg10 mi
8:56 PM81 °FClear.12 mph82%30.94 "Hg10 mi
7:56 PM81 °FPassing clouds.6 mph82%30.93 "Hg10 mi
6:56 PM81 °FPassing clouds.10 mph79%30.92 "Hg10 mi
5:56 PM84 °FPassing clouds.9 mph77%30.91 "Hg10 mi
4:56 PM84 °FPassing clouds.10 mph70%30.91 "Hg10 mi
3:56 PM85 °FSunny.14 mph72%30.91 "Hg10 mi
2:56 PM85 °FSunny.14 mph72%30.91 "Hg10 mi
1:56 PM83 °FLight rain. Passing clouds.12 mph77%30.93 "Hg10 mi
12:56 PM85 °FSunny.15 mph70%30.94 "Hg10 mi
11:56 AM90 °FScattered clouds.15 mph61%30.94 "Hg10 mi
10:56 AM86 °FSunny.15 mph67%30.95 "Hg10 mi
9:56 AM87 °FPassing clouds.14 mph67%30.95 "Hg10 mi
Weather by CustomWeather, © 2014

See weather overviewHow to use our weather pages